Regional Weather Roundup
Issued by NWS

Home | Current Version | Previous Version | Text Only | Print | Product List | Glossary Off
Versions: 1 2 3 4 5 6 7 8 9 10 11 12 13 14 15 16 17 18 19 20 21 22 23 24 25 26 27 28 29 30 31 32 33 34 35 36 37 38 39 40 41 42 43 44 45 46 47 48 49 50

000
ASUS43 KFSD 242302
RWRSD

WEATHER ROUNDUP FOR SOUTH DAKOTA
NATIONAL WEATHER SERVICE SIOUX FALLS SD
500 PM CST MON NOV 24 2014

NOTE: "FAIR" INDICATES FEW OR NO CLOUDS BELOW 12,000 FEET WITH NO
SIGNIFICANT WEATHER AND/OR OBSTRUCTIONS TO VISIBILITY.


SDZ001>005-009-010-012>017-250000-
NORTHWEST AND NORTH CENTRAL SOUTH DAKOTA

CITY           SKY/WX    TMP DP  RH WIND       PRES   REMARKS
BUFFALO          N/A     32  23  69 NW18      29.94R WCI  20
FAITH            N/A     28  16  60 NW15      30.00R WCI  16
MOBRIDGE       CLEAR     25   9  50 NW12      29.98R WCI  14
$$

SDZ012>016-024>037-041>051-057-063-072>074-250000-
SOUTHWEST AND SOUTH CENTRAL SOUTH DAKOTA

CITY           SKY/WX    TMP DP  RH WIND       PRES   REMARKS
RAPID CTY ARPT CLOUDY    33  25  72 NW24G32   30.02R WCI  20
PIERRE         CLEAR     27   7  42 NW10      30.01R WCI  17
CUSTER         MOCLDY    26  18  71 N8        29.97R WCI  18
PHILIP         PTCLDY   N/A N/A N/A NW10      30.03R
PINE RIDGE     LGT SNOW  30  28  92 NW7       30.04R FOG     WCI  23
WINNER         FAIR      29  10  45 NW14      29.99R WCI  18
$$

SDZ004>011-016>023-039-040-250000-
NORTHEAST SOUTH DAKOTA

CITY           SKY/WX    TMP DP  RH WIND       PRES   REMARKS
ABERDEEN       CLEAR     23   4  44 NW18      29.96R WCI   9
WATERTOWN      CLEAR     19  11  70 NW18      29.87R WCI   4
SISSETON         N/A     19  12  74 N21G32    29.89R WCI   3
$$

SDZ017-020-022-023-036>040-048>070-250000-
SOUTHEAST SOUTH DAKOTA

CITY           SKY/WX    TMP DP  RH WIND       PRES   REMARKS
SIOUX FALLS    PTCLDY    24  14  65 NW20G31   29.88R WCI  10
HURON          CLEAR     23  10  57 NW20      29.97R WCI   8
CHAMBERLAIN    CLEAR     27   6  41 NW17G26   29.98R WCI  14
MITCHELL       CLEAR     26   7  44 NW17      29.97R WCI  13
YANKTON        CLEAR     28  12  50 NW20G30   29.93R WCI  15
$$

ABBREVIATIONS USED IN REMARKS
   TC - TEMPERATURE IN CELSIUS
  WCI - WIND CHILL INDEX
   HX - HEAT INDEX
  VSB - VISIBILITY



USA.gov is the U.S. government's official web portal to all federal, state and local government web resources and services.